www.pogodaiklimat.ru

АРХИВ ПОГОДЫ в Тюмени

Время (UTC), дата Ветер
(напр.,м/с)
 
Видим.   Явления Облачность Т
(С)
Тd
(С)
f
(%)
Тe
(С)
Тes
(С)
Комфортность P
(гПа)
Po
(гПа)
Тmin
(С)
Tmax
(С)
R
(мм)
S
(см)
15 23.08 З 1 4000 м 8/0
[Ac trans Ci sp]
+24.9 +15.5 56 +28 +28 жарко 1024.1 1012.3 +30.1
18 23.08 штиль 0 50 км 1/0
[Ac trans]
+20.0 +16.5 80 +22 +22 комфорт 1024.4 1012.4
21 23.08 штиль 0 50 км ясно +17.3 +15.6 90 +17 +17 тепло 1023.8 1011.7
00 24.08 штиль 0 4000 м местами туман поземный 3/1 600 м
[Cb cap Ac cuf]
+14.9 +13.8 93 +15 +15 тепло 1023.6 1011.3
03 24.08 С 1 4000 м 5/0
[Ci fib]
+18.7 +16.0 84 +21 +23 комфорт 1023.5 1011.4 +14.7
06 24.08 В 2 4000 м 8/0
[Ci fib]
+27.0 +15.4 49 +30 +37 душно 1022.7 1010.9
09 24.08 Ю 2 4000 м 6/0
[Ci fib]
+30.1 +14.3 38 +32 +40 жарко 1020.9 1009.4
12 24.08 ЮЗ 2 4000 м 6/1 600 м
[Cu med, cong Ci fib]
+30.2 +15.1 40 +33 +35 душно 1019.3 1007.8
15 24.08 Ю 1 4000 м 6/0
[As op Ci fib]
+27.0 +18.7 60 +32 +32 очень
душно
1018.8 1007.2 +31.1
18 24.08 ЮЗ 1 50 км ясно +20.9 +17.7 82 +26 +26 душно 1018.7 1006.8
21 24.08 ЮЗ 1 50 км 4/0
[Ci fib]
+20.2 +16.9 81 +24 +24 комфорт 1017.7 1005.8
00 25.08 ЮЗ 1 4000 м 4/0
[Ac trans Ci fib]
+17.9 +16.4 91 +19 +19 тепло 1017.9 1005.9
03 25.08 З 1 4000 м ясно +20.1 +16.1 78 +24 +27 комфорт 1018.0 1006.1 +16.9
06 25.08 ЮЗ 3 4000 м 3/0
[Ci fib]
+26.5 +16.5 54 +30 +37 душно 1018.0 1006.3
09 25.08 З 4 4000 м 8/0
[Cc]
+28.0 +14.4 43 +30 +35 жарко 1017.5 1005.8
12 25.08 З 3 4000 м 9/0
[Ci fib]
+25.6 +14.4 50 +28 +30 жарко 1016.4 1004.7
15 25.08 Ю 1 4000 м 8/1 600 м
[Sc diur, vesp Ac lent Cc]
+23.0 +15.9 64 +27 +27 душно 1016.4 1004.5 +29.0
18 25.08 Ю 1 50 км ясно +17.7 +15.5 87 +19 +19 тепло 1015.7 1003.7
21 25.08 Ю 1 50 км 1/0
[Ci fib]
+17.9 +15.1 84 +19 +19 тепло 1014.5 1002.5
00 26.08 ЮЗ 2 4000 м ясно +17.4 +15.0 86 +18 +18 тепло 1013.8 1001.8
03 26.08 ЮЗ 2 4000 м 1/0
[Ci fib]
+19.3 +15.2 77 +21 +24 комфорт 1013.7 1001.8 +15.7
06 26.08 ЮЗ 3 4000 м 8/1 600 м
[Cu hum Ac und Ci fib]
+24.3 +15.0 56 +27 +31 жарко 1012.8 1001.1
09 26.08 ЮЗ 4 4000 м 10/0
[Ci sp]
+29.7 +12.4 34 +31 +35 жарко 1011.2 999.7
12 26.08 ЮЗ 3 4000 м 10/3 600 м
[Cu med, cong Ac trans Ci sp]
+30.0 +13.2 36 +31 +32 жарко 1010.0 998.6
15 26.08 штиль 0 4000 м 10/0
[Ac trans Ci sp]
+24.6 +16.3 60 +28 +28 душно 1009.8 998.1 +31.4
18 26.08 С 2 50 км зарница 10/0
[Ac trans Ci sp]
+21.6 +14.9 66 +25 +25 комфорт 1010.3 998.6
21 26.08 З 3 50 км 10/0
[Ac und]
+18.2 +13.2 73 +19 +19 тепло 1010.0 998.1
00 27.08 Ю 2 4000 м слабый дождь 10/0
[Ac As]
+15.6 +14.2 91 +15 +15 тепло 1009.7 997.7
03 27.08 ЮЗ 1 4000 м {дождь} 9/0
[Ac As Ci sp]
+15.8 +14.8 94 +16 +18 тепло 1009.1 997.1 +14.9 0.5
06 27.08 ЮЗ 3 4000 м {дождь} 9/8 600 м
[Cb cap Ac trans]
+18.2 +14.2 77 +19 +20 тепло 1009.2 997.3
09 27.08 З 4 4000 м 8/5 600 м
[Cu med, cong Ac cast Ci fib]
+19.8 +11.9 60 +21 +23 комфорт 1008.9 997.1
12 27.08 СЗ 3 4000 м 4/3 600 м
[Cu med, cong Ac trans]
+17.7 +9.8 60 +18 +19 по сезону 1010.4 998.4
15 27.08 СВ 1 4000 м 4/0
[Ac trans]
+15.4 +11.3 77 +16 +16 по сезону 1011.4 999.3 +20.5
18 27.08 В 1 50 км 8/0
[Ac trans]
+11.2 +10.0 92 +11 +11 по сезону 1012.1 999.8
21 27.08 В 1 50 км 8/0
[Ac trans]
+11.6 +10.4 92 +11 +11 по сезону 1012.2 999.9
00 28.08 Ю 1 4000 м 9/0
[Ac trans]
+11.0 +10.3 95 +11 +11 по сезону 1012.3 1000.0
03 28.08 Ю 1 4000 м 6/0
[Ac trans Ci fib]
+11.0 +10.6 97 +11 +12 по сезону 1012.1 999.8 +10.7
06 28.08 Ю 3 4000 м 8/8 600 м
[Cu med, cong]
+17.0 +11.7 71 +17 +18 тепло 1010.6 998.6
09 28.08 ЮЗ 3 4000 м 9/8 600 м
[Cu med, cong Ci fib]
+20.0 +8.8 48 +21 +23 комфорт 1008.5 996.7
12 28.08 ЮЗ 4 4000 м 5/1 600 м
[Cu hum Ci fib]
+21.2 +7.4 41 +22 +24 комфорт 1005.9 994.1
15 28.08 Ю 2 4000 м 4/0
[Ac lent Ci fib]
+18.1 +8.9 55 +19 +19 тепло 1004.0 992.2 +21.6
18 28.08 Ю 2 50 км 8/0
[Ac trans]
+15.8 +9.2 65 +16 +16 тепло 1001.8 989.9
21 28.08 Ю 3 50 км 8/0
[Ac trans]
+16.3 +10.6 69 +16 +16 тепло 999.0 987.1
00 29.08 Ю 3 50 км {ливн. осадки} 9/3 600 м
[Sc Ac trans]
+14.6 +11.9 84 +14 +14 тепло 996.7 984.8
03 29.08 ЮЗ 3 4000 м гроза без осадков {ливн. осадки} 10/8 600 м
[Cb cap Ac As]
+13.9 +12.4 91 +13 +13 по сезону 996.2 984.3 +13.6 2
06 29.08 З 7-13
{13}
4000 м {гроза, ливн. осадки} 8/6 600 м
[Cb calv Ac trans]
+17.3 +9.5 60 +16 +17 по сезону 996.4 984.5
09 29.08 З 5-11
{15}
4000 м в посл. час ливневой дождь 10/10 600 м
[Cb cap]
+14.3 +10.7 79 +13 +13 прохладно 998.7 986.8
12 29.08 З 6-12
{14}
4000 м {ливн. осадки} 10/8 600 м
[Cb cap Ac trans Ci sp]
+11.5 +4.6 63 +9 +9 очень
холодно
1003.5 991.3
15 29.08 З 5-10
{14}
4000 м слабый дождь {ливн. осадки} 10/10 300 м
[Frnb Ns]
+6.9 +4.1 82 +3 +3 очень
холодно
1007.4 995.0 +18.8 0.4
18 29.08 З 4
{12}
50 км слабый дождь {ливн. осадки} 10/0
[Ac As]
+7.0 +5.5 90 +3 +3 очень
холодно
1008.8 996.4
21 29.08 СЗ 4 50 км {дождь} 4/0
[Ac trans]
+7.4 +5.0 85 +4 +4 холодно 1010.8 998.4
00 30.08 З 4
{10}
50 км слабый ливневой дождь 10/10 600 м
[Cb cap]
+6.8 +4.5 85 +3 +3 холодно 1013.1 1000.6
03 30.08 З 5 4000 м {ливн. осадки} 4/4 600 м
[Cu hum]
+7.9 +4.5 79 +4 +5 очень
холодно
1014.9 1002.4 +6.0 2
06 30.08 З 5
{11}
4000 м {ливн. осадки} 8/8 600 м
[Cu med, cong Ci fib]
+12.0 +5.3 64 +10 +11 холодно 1016.2 1004.0
09 30.08 СЗ 4
{11}
4000 м 8/8 600 м
[Cu med, cong]
+14.3 +3.8 49 +13 +14 прохладно 1017.1 1004.9
12 30.08 З 4 4000 м 6/6 600 м
[Cu med, cong]
+16.3 +3.2 41 +16 +16 по сезону 1017.7 1005.6

 

Местоположение метеостанции Тюмень (Тюменская область, Россия): широта 57.12 долгота 65.43 высота над уровнем моря 102 м.

В архиве по умолчанию представлена погода в Тюмени за последнюю неделю. Архивные данные за месяц целиком и за предыдущие месяцы, начиная с января 2011 года, Вы можете получить, выбрав интересующий диапазон дат из раскрывающегося списка и нажав кнопку "Ввод!".

Внимание! Время в таблицах - всемирное. Для получения местного времени необходимо прибавить поправку, которая в Тюмени равна 5 ч.

Ветер - указаны скорость ветра в м/с - средняя за 10 мин, порывы в срок и между сроками (в фигурных скобках) и направление, откуда дует ветер: С - северный, СВ - северо-восточный, В - восточный, ЮВ - юго-восточный, Ю - южный, ЮЗ - юго-западный, З - западный, СЗ - северо-западный.
Видимость - горизонтальная дальность видимости в метрах или километрах. При видимости от 1 до 10 км при отсутствии осадков обычно наблюдается дымка, при ухудшении видимости до 1 км и менее - туман. В сухую погоду видимость может ухудшаться дымом, пылью или мглою.
Явления - указаны атмосферные явления, наблюдавшиеся в срок или в последний час перед сроком; фигурными скобками обозначены явления, наблюдавшиеся между сроками (за 1-3 часа до срока); квадратными скобками обозначены град или гололедные отложения с указанием их диаметра в мм.
Облачность - указаны через наклонную черту общая и нижняя облачность в баллах и высота нижней границы облаков в метрах; квадратными скобками обозначены формы облаков: Ci - перистые, Cs - перисто-слоистые, Cc - перисто-кучевые, Ac - высококучевые, As - высокослоистые, Sc - слоисто-кучевые, Ns - слоисто-дождевые, Cu - кучевые, Cb - кучево-дождевые. Подробнее классификацию облаков см. в Атласе облаков (PDF).
T - Температура воздуха - температура, измеренная на высоте 2 м над землей.
Td - Температура точки росы - температура, при понижении до которой содержащийся в воздухе водяной пар достигнет насыщения.
f - Относительная влажность воздуха - влажноcть воздуха, измеренная на высоте 2 м над землей.
Te - Эффективная температура - температура, которую ощущает одетый по сезону человек в тени. Характеристика душности погоды. При расчете учитывается влияние влажности воздуха и скорости ветра на теплоощущения человека.
Tes - Эффективная температура на солнце - температура, которую ощущает человек, с поправкой на солнечный нагрев. Характеристика знойности погоды. Зависит от высоты солнца над горизонтом, облачности и скорости ветра. Ночью, в пасмурную погоду, а также при ветре 12 м/с и более поправка равна нулю.
P - Атмосферное давление - приведенное к уровню моря атмосферное давление.
Po - Атмосферное давление - измеренное на уровне метеостанции атмосферное давление.
Tmin - Минимальная температура - минимум температуры воздуха на высоте 2 м над землей.
Tmax - Максимальная температура - максимум температуры воздуха на высоте 2 м над землей.
R - Количество осадков - Количество выпавших осадков, мм. При наведении курсора мыши на число - период времени, за который выпало указанное количество осадков.
S - Снежный покров - Высота снежного покрова, см. При наведении курсора мыши на число - состояние снежного покрова и степень покрытия местности в баллах.